Rbgn^[z[y[W
メイン
   新天体発見情報
     Comet C/2024 B2 (Lemmon)
投稿するにはまず登録を

フラット表示 前のトピック | 次のトピック
投稿者 スレッド
佐藤裕久
投稿日時: 2024-2-15 18:30
モデレータ
登録日: 2005-6-12
居住地: 日本
投稿: 2701
オンライン
Comet C/2024 B2 (Lemmon)

1月31日、アリゾナ州にあるMt Lemmon サーベイの1.5-m 反射望遠鏡で小惑星状天体が発見された。
小惑星センターのPCCP webpageにに公表後、R. Weryk (西オンタリオ大学,物理および天文学科)は、
この天体をHaleakalaにあるPan-STARRS1とPan-STARRS2 1.8-m Ritchey-Chretien 反射望遠鏡で
発見前の露出から見つけた。
S. Deen (Simi Valley, カリフォルニア州)は、2023年5月14.28-14.39日と15.28-15.35日UT、
J.-C. Cuillandreが、3.6-m Canada-France-Hawaii 望遠鏡のUNIONS (紫外近赤外光学北方サーベイ
/ Ultraviolet Near Infrared Optical Northern Survey)で得た300-秒露出から、発見前の画像を
見つけた。彗星は尾を引いているが、コマが見え、p.a. 90-135°に8"ほどのかすかな尾がある。
R光度は、5月14日に22.2-22.6等、5月15日に22.3-22.5等と測定された。
佐藤英貴氏(東京都文京区,2024年2月4.3日UT、60-秒露出24枚のスタック, 0.43-m f/6.8 アストロ
グラフ, Utah Desert Remote 天文台, Beryl Junction近郊, ユタ州, 米国, 遠隔操作: 強く集光した
6"のコマが見えたが、尾はない。5".7の円形範囲で測定した光度は20.1等であった)らCCD位置観測者
によって彗星状と観測された。

彗星機能の報告は次のとおり、

OC   Date        Reporter           Coma    Tail    PA          Exposures
T14  2023-05-15  S. Deen            1".5      8"     90-125
U94  2024-02-04  H. Sato            6"                           24x60s

発見位置は次のとおり、

     2024 UT             R.A. (2000) Decl.       Mag.
     Jan. 31.25544    8 42 46.00   +57 36 25.6   20.6
          31.26070    8 42 45.07   +57 36 24.2
          31.26596    8 42 44.25   +57 36 21.2   20.3
          31.27122    8 42 43.27   +57 36 18.8   20.8

MPCの楕円軌道要素、位置推算表は次のとおり、

Orbital elements:
    C/2024 B2 (Lemmon)                                                          
Epoch 2023 Oct. 23.0 TT = JDT 2460240.5                                         
T 2023 Oct. 6.13738 TT                                  Veres                   
q   4.0768497            (2000.0)            P               Q                  
z  +0.0000067      Peri.  130.33437     -0.38578884     -0.21392359             
 +/-0.0000000      Node   294.37899     +0.19280692     +0.93257196             
e   0.9999729      Incl.   99.83734     +0.90221531     -0.29076835             
From 67 observations 2023 May 14-2024 Feb. 6, mean residual 1".4.               
                                                                                
Ephemeris:
Date    TT    R. A. (2000) Decl.     Delta      r    Elong.  Phase   m1
2024 01 09    09 47 11.7 +58 35 56   3.4028  4.1559   134.9     9.6  20.3
...
2024 01 24    09 03 47.8 +58 19 05   3.3768  4.1824   140.4     8.6  20.4
...
2024 02 01    08 40 40.5 +57 30 45   3.3971  4.1980   139.8     8.7  20.4
...
2024 02 07    08 24 27.0 +56 37 14   3.4282  4.2104   137.7     9.1  20.4
2024 02 08    08 21 52.6 +56 27 01   3.4347  4.2125   137.2     9.1  20.4
2024 02 09    08 19 20.8 +56 16 26   3.4416  4.2147   136.7     9.2  20.4
...
2024 02 15    08 05 08.0 +55 06 26   3.4904  4.2278   133.2     9.8  20.5
...
2024 02 23    07 48 58.6 +53 19 04   3.5746  4.2462   127.2    10.7  20.5
...
2024 03 09    07 27 21.7 +49 35 01   3.7830  4.2832   113.9    12.2  20.7

(MPEC 2024-C87、CBET 5345)

フラット表示 前のトピック | 次のトピック

題名 投稿者 日時
 » Comet C/2024 B2 (Lemmon) 佐藤裕久 2024-2-15 18:30

投稿するにはまず登録を
 
© 1999 Tsutomu Seki.